Location: Kawakawa
(35.3830°S, 174.0670°E)
Time: 03:16:23
(UTC+12:00)

Cosmos 1763 Rocket - Pass Details

Date: 24 January 2019
Orbit: 732 x 781 km, 74.0° (Epoch: 17 April)

Event Time Altitude Azimuth Distance (km) Brightness Sun altitude
Rises 22:24:01 0° 201° (SSW) 3,260 7.9 -19.0°
Reaches altitude 10° 22:26:26 10° 202° (SSW) 2,319 7.0 -19.3°
Maximum altitude 22:31:40 70° 285° (WNW) 807 3.6 -20.1°
Enters shadow 22:34:04 32° 0° (N) 1,281 4.3 -20.5°
